Regional Weather Roundup
Issued by NWS

Home | Current Version | Previous Version | Graphics & Text | Print | Product List | Glossary Off
Versions: 1 2 3 4 5 6 7 8 9 10 11 12 13 14 15 16 17 18 19 20 21 22 23 24 25 26 27 28 29 30 31 32 33 34 35 36 37 38 39 40 41 42 43 44 45 46 47 48 49 50

000
ASUS43 KDMX 300407
RWRIA

WEATHER ROUNDUP FOR IOWA
NATIONAL WEATHER SERVICE DES MOINES IA
1100 PM CDT FRI MAY 29 2015

NOTE: "FAIR" INDICATES FEW OR NO CLOUDS BELOW 12,000 FEET WITH NO
SIGNIFICANT WEATHER AND/OR OBSTRUCTIONS TO VISIBILITY.

* - THESE STATIONS ARE NOT NWS STATIONS...THUS NOT UNDER NWS
QUALITY CONTROL.  THEY ALSO DO NOT REPORT WEATHER SUCH
AS PRECIPITATION OR FOG.

IAZ001>003-012>014-020>022-031>034-043>046-300500-
   NORTHWEST IOWA

CITY           SKY/WX    TMP DP  RH WIND       PRES   REMARKS
CARROLL *      CLOUDY    55  54  94 N20       30.02S
CHEROKEE *     CLOUDY    52  50  93 N15G23    30.08S
DENISON *      CLOUDY    54  54 100 N16G23    30.05R
LE MARS *      CLOUDY    52  45  76 N20G26    30.12S
ORANGE CITY *  CLOUDY    46  43  87 N15G24    30.11R
SHELDON *      CLOUDY    50  46  87 N21G29    30.09S
SIOUX CITY     CLOUDY    54  47  77 N20       30.10S
SPENCER        CLOUDY    52  47  83 N25G32    30.06S
STORM LAKE *   CLOUDY    52  50  93 N22G28    30.06S
$$

IAZ055>058-069>071-079>083-090>094-300500-
   SOUTHWEST IOWA

CITY           SKY/WX    TMP DP  RH WIND       PRES   REMARKS
ATLANTIC *     CLOUDY    59  59 100 N16G25    30.01R
AUDUBON *      CLOUDY    57  54  88 N15G26    30.02R
CLARINDA *     DRIZZLE   66  66 100 NW13      29.99R
COUNCIL BLFS * CLOUDY    57  57 100 N16G22    30.04R
CRESTON *      PTCLDY    64  64 100 S7        29.97R
HARLAN  *      CLOUDY    57  57 100 N18       30.06R
LAMONI         CLOUDY    67  63  87 S7        29.96S
RED OAK *      CLOUDY    63  61  94 N15G24    30.01R
SHENANDOAH *   CLOUDY    63  61  94 NW12G18   30.02R
$$

IAZ047>049-059>061-072>074-084-300500-
   CENTRAL IOWA

CITY           SKY/WX    TMP DP  RH WIND       PRES   REMARKS
AMES           CLOUDY    63  60  90 NW20G26   29.96R
ANKENY *       LGT RAIN  66  66 100 CALM      29.95R
CHARITON *       N/A     64  63  94 S5        29.96S
DES MOINES     LGT RAIN  68  63  84 N10       29.95R
GRINNELL*      CLOUDY    66  63  88 S9        29.95R
KNOXVILLE *    CLEAR     66  63  88 S8        29.93F
MARSHALLTOWN   LGT RAIN  65  64  97 SW6       29.93S
PELLA *        CLOUDY    66  66 100 S6        29.95F
PERRY *        CLOUDY    61  58  90 N20       29.99R
$$

IAZ004>006-015-016-023>025-035-036-300500-
   NORTH CENTRAL IOWA

CITY           SKY/WX    TMP DP  RH WIND       PRES   REMARKS
ALGONA *       CLOUDY    55  55 100 N22       30.02S
CLARION *      CLOUDY    59  55  88 N23G35    29.97R
ESTHERVILLE    CLOUDY    52  50  93 N25G33    30.05R
FORT DODGE *   CLOUDY    57  52  82 N13G20    30.01R
MASON CITY     RAIN      62  60  93 NW23G31   29.97R FOG
FOREST CITY *  CLOUDY    55  55 100 N15G26    29.99R
IOWA FALLS *   CLOUDY    63  61  94 NW17      29.95R
$$

IAZ007>011-017>019-026>030-037>042-050>054-066-300500-
   NORTHEAST IOWA

CITY           SKY/WX    TMP DP  RH WIND       PRES   REMARKS
CEDAR RAPIDS   RAIN      65  64  97 S9G21     29.93F FOG
CHARLES CITY * MOCLDY    64  64 100 NW5       29.93R
CLINTON *      CLOUDY    70  64  83 SW9       29.96S
DECORAH *      DRIZZLE   66  66 100 CALM      29.91S
DUBUQUE        CLOUDY    68  64  87 SW9       29.93S
MONTICELLO *   CLOUDY    70  66  88 SW12      29.93S
OELWEIN *      CLOUDY    68  64  88 S10       29.92F
WATERLOO       CLOUDY    67  65  93 SW5       29.91S
$$

IAZ064-065-067-068-078-300500-
   EAST CENTRAL IOWA

CITY           SKY/WX    TMP DP  RH WIND       PRES   REMARKS
DAVENPORT      CLOUDY    71  62  73 W14       29.96R
IOWA CITY      CLOUDY    70  63  78 S10       29.96S
MT. PLEASANT * CLOUDY    68  64  88 CALM      29.97F
MUSCATINE *    CLOUDY    68  64  88 CALM      29.96F
QUAD CITIES    CLOUDY    70  64  81 W7        29.95S
$$

IAZ062-063-075>077-085>089-095>099-300500-
   SOUTHEAST IOWA

CITY           SKY/WX    TMP DP  RH WIND       PRES   REMARKS
BURLINGTON     LGT RAIN  70  67  90 SW6       29.98R
FAIRFIELD *    CLOUDY    68  63  83 S5        29.97S
FORT MADISON * LGT RAIN  70  66  88 S8        29.99S
KEOKUK *       CLOUDY    70  68  94 S8        29.99S
OSKALOOSA *      N/A     66  63  88 S8        29.96F
CENTERVILLE *  CLEAR     64  64 100 S6        29.98F
OTTUMWA        CLOUDY    65  64  97 S5        29.96S
WASHINGTON *   CLOUDY    68  61  77 S7        29.97F
$$

ABBREVIATIONS USED IN REMARKS
   TC - TEMPERATURES IN CELSIUS
  WCI - WIND CHILL INDEX
   HX - HEAT INDEX
  VSB - VISIBILITY
$$




USA.gov is the U.S. government's official web portal to all federal, state and local government web resources and services.